Regional Weather Roundup
Issued by NWS

Home | Current Version | Previous Version | Text Only | Print | Product List | Glossary Off
Versions: 1 2 3 4 5 6 7 8 9 10 11 12 13 14 15 16 17 18 19 20 21 22 23 24 25 26 27 28 29 30 31 32 33 34 35 36 37 38 39 40 41 42 43 44 45 46 47 48 49 50

000
ASUS43 KDTX 201010
RWRMI
MICHIGAN HOURLY REGIONAL WEATHER ROUNDUP
NATIONAL WEATHER SERVICE DETROIT/PONTIAC MI
600 AM EDT SUN AUG 20 2017

NOTE: "FAIR" INDICATES FEW OR NO CLOUDS BELOW 12,000 FEET WITH NO
SIGNIFICANT WEATHER AND/OR OBSTRUCTION TO VISIBILITY.

MIZ047>049-052>055-059>063-066>070-074>076-081>083-201100-
SOUTHEAST LOWER MICHIGAN

CITY           SKY/WX    TMP DP  RH WIND       PRES   REMARKS
ADRIAN         PTCLDY    57  56  96 CALM      30.05F
ALMA           FOG       56  55  97 CALM      30.03S VSB 1/2
ANN ARBOR      PTCLDY    53  53 100 CALM      30.05S FOG
BAD AXE        CLEAR     58  56  94 CALM      30.04R
CARO           FOG       54  53  95 CALM      30.02S VSB<1/4
DETROIT CITY   CLEAR     62  59  90 W3        30.06R
DETROIT        CLEAR     62  59  90 CALM      30.06S
FLINT          CLEAR     55  54  96 CALM      30.04S
GROSSE ILE     CLEAR     62  58  89 CALM      30.05S
HILLSDALE      CLEAR     54  52  94 CALM      30.04F
HOWELL         CLEAR     57  56  97 CALM      30.05S

CITY           SKY/WX    TMP DP  RH WIND       PRES   REMARKS
JACKSON        LGT RAIN  57  55  93 CALM      30.04F
LAMBERTVILLE   CLEAR     56  55  98 CALM      30.05S FOG
LANSING        CLEAR     59  56  89 CALM      30.04S
LAPEER         FAIR      54  53  98 CALM      30.05S
MASON          CLEAR     56  54  94 CALM      30.05S FOG
MONROE         CLEAR     55  55  98 CALM      30.05S FOG
MT. CLEMENS    CLEAR     59  58  96 CALM      30.04R
PONTIAC        CLEAR     60  58  92 CALM      30.04S
PORT HOPE        N/A     64  61  90 SW8       29.99S
PORT HURON     FOG       55  54  94 CALM      30.05R VSB 3/4
TRI CITIES     CLEAR     60  60 100 SW6       30.03R
MIDLAND        FOG       56  56 100 CALM      30.02S VSB 3/4
TROY           CLEAR     61  58  91 CALM      30.07S
SAGINAW HB     CLEAR     59  57  94 SW5       30.02S
$$
MIZ043>046-050>051-056>058-064>065-071>073-077>080-201100-
SOUTHWEST LOWER MICHIGAN

CITY           SKY/WX    TMP DP  RH WIND       PRES   REMARKS
BATTLE CREEK   CLEAR     56  54  93 CALM      30.04F
BENTON HARBOR  CLEAR     59  56  89 CALM      30.03R
BIG RAPIDS     FOG       57  55  95 CALM      30.02R VSB 1/2
COLDWATER      CLEAR     56  56 100 CALM      30.04S FOG
FREMONT        FOG       58  58 100 CALM      30.01S VSB 3/4
HOLLAND        CLEAR     59  56  89 CALM      30.02S
GRAND RAPIDS   CLEAR     58  57  97 SE3       30.02S
IONIA          FAIR      55  55  97 SE3       30.02S
KALAMAZOO      CLEAR     55  52  89 CALM      30.05R
LUDINGTON      CLEAR     67  64  88 S3        30.00R
MARSHALL       CLEAR     52  52  99 CALM      30.04S FOG
MOUNT PLEASANT CLEAR     59  57  93 CALM      30.01S
MUSKEGON       CLEAR     60  58  92 CALM      30.01S
SOUTH HAVEN    CLEAR     61  58  91 CALM      30.02S
$$
MIZ016>042-201100-
NORTHERN LOWER MICHIGAN

CITY           SKY/WX    TMP DP  RH WIND       PRES   REMARKS
ALPENA         CLEAR     56  56 100 CALM      29.98R
BEAVER ISLAND  CLEAR     63  63  99 CALM      29.95S FOG
BELLAIRE       CLEAR     59  57  94 CALM      29.97F FOG
CADILLAC       FOG       58  55  91 SW3       30.02R VSB 3/4
CHARLEVOIX     CLEAR     63  63 100 CALM      29.99S FOG
FRANKFORT      CLEAR     66  66 100 CALM      29.99R
GAYLORD        CLEAR     60  58  92 SW5       29.99S
GRAYLING       CLEAR     61  58  89 SW6       30.01S
HARBOR SPRINGS CLEAR     64  62  95 CALM      29.96S
HOUGHTON LAKE  CLEAR     62  59  90 SW3       30.01F
MANISTEE       CLEAR     57  57 100 E3        29.99R
OSCODA         PTCLDY    63  60  91 SW7       29.98S
PELLSTON       CLEAR     62  60  93 CALM      29.96S
ROGERS CITY    CLEAR     64  60  90 SW7       29.97S
TRAVERSE CITY  CLEAR     64  61  90 CALM      29.96F
$$
MIZ007>008-015-201100-
EASTERN UPPER MICHIGAN

CITY           SKY/WX    TMP DP  RH WIND       PRES   REMARKS
KINROSS        FOG       57  57 100 CALM      29.95S VSB 1/4
MACKINAC ISLAN CLEAR     64  64 100 SW7       29.94F
NEWBERRY       FOG       59  58  97 CALM      29.94S VSB 1/4
S. S. MARIE    FOG       56  54  93 E3        29.95R VSB 1/2
MUNISING         N/A     61  60  97 SE7       29.91S
$$
MIZ004>006-011>014-085-201100-
CENTRAL UPPER MICHIGAN

CITY           SKY/WX    TMP DP  RH WIND       PRES   REMARKS
MANISTIQUE     PTCLDY    52  46  81 CALM      29.93S
ESCANABA       CLEAR     57  57 100 CALM      29.94R FOG
MENOMINEE      CLEAR     61  59  93 SW3       29.97R
SAWYER-GWINN   CLEAR     52  50  93 CALM      29.94F
$$
MIZ001>003-009>011-084-201100-
WESTERN UPPER MICHIGAN

CITY           SKY/WX    TMP DP  RH WIND       PRES   REMARKS
IRON MOUNTAIN  CLEAR     54  51  90 CALM      29.95R
HOUGHTON         N/A    N/A N/A N/A MISG      29.88F
COPPER HARBOR    N/A     64  58  80 W7        29.86S
IRONWOOD       CLEAR     64  59  83 S9        29.92R
$$

ABBREVIATIONS USED IN REMARKS
   TC - TEMPERATURE IN CELSIUS
  WCI - WIND CHILL INDEX
   HX - HEAT INDEX
  VSB - VISIBILITY





USA.gov is the U.S. government's official web portal to all federal, state and local government web resources and services.